Preview of NWS' New Version of Forecast
This preview is not operational and should not be used for support decisions.

Regional Weather Roundup (RWR)

Issued by National Weather Service (NWS)

                            
000
ASUS43 KMKX 212220
RWRWI 

WISCONSIN REGIONAL WEATHER ROUNDUP
NATIONAL WEATHER SERVICE MILWAUKEE/SULLIVAN WI
500 PM CDT SUN APR 21 2019

NOTE: "FAIR" INDICATES FEW OR NO CLOUDS BELOW 12,000 FEET WITH NO
SIGNIFICANT WEATHER AND/OR OBSTRUCTIONS TO VISIBILITY.

WIZ001-002-006>008-014>016-023>028-212300-
NORTHWEST WISCONSIN
  
CITY           SKY/WX    TMP DP  RH WIND       PRES   REMARKS
SUPERIOR ARPT  CLOUDY    36  36  99 NE13G18   30.06R WCI  28          
ASHLAND        CLOUDY    40  39  97 NE15      30.05S WCI  32          
HAYWARD        FAIR      52  41  66 NE15G23   29.95R                  
SIREN          CLOUDY    56  42  58 NE14      29.92R                  
CUMBERLAND     FAIR      63  41  45 NE17      29.87S                  
RICE LAKE      FAIR      65  43  44 NE17      29.87S                  
CHETEK         FAIR      64  43  47 NE7       29.85S                  
LADYSMITH      FAIR      62  44  51 NE15G21   29.90R                  
EAU CLAIRE     FAIR      79  47  32 SE5       29.79F                  
MENOMONIE      FAIR      77  41  27 NE6       29.80R                  
NEW RICHMOND   FAIR      66  42  42 NE14G24   29.83R                  
OSCEOLA        FAIR      67  46  45 NE15      29.86S                  
$$
 
WIZ003>005-009-010-017-018-212300-
NORTH CENTRAL WISCONSIN
  
CITY           SKY/WX    TMP DP  RH WIND       PRES   REMARKS
MANITOWISH WTR FAIR      49  42  74 NE12      29.98R                  
ARBOR VITAE    FAIR      57  40  53 NE10      29.96R                  
WOODRUFF       FAIR      57  40  53 NE10      29.96R                  
RHINELANDER    CLOUDY    60  35  39 NE8G17    29.93S                  
EAGLE RIVER    FAIR      55  35  46 NE9G17    29.97R                  
LAND O LAKES   PTSUNNY   52  39  59 NE9       30.00S                  
PHILLIPS       FAIR      57  40  52 NE14G20   29.92R                  
TOMAHAWK       FAIR      63  39  41 N7        29.91R                  
MEDFORD        FAIR      73  46  37 E9        29.85S                  
MERRILL        FAIR      73  45  36 E7        29.87S                  
$$
 
WIZ029-030-035-036-043>047-212300-
CENTRAL WISCONSIN
  
CITY           SKY/WX    TMP DP  RH WIND       PRES   REMARKS
WAUSAU         NOT AVBL                                               
MOSINEE        MOSUNNY   77  43  29 S13       29.86F                  
MARSHFIELD     FAIR      79  46  31 S16G25    29.82S                  
STEVENS POINT  FAIR      78  44  29 S12G17    29.85S                  
WAUPACA        FAIR      80  39  23 S10G20    29.87S                  
WAUTOMA        FAIR      80  43  26 S15       29.85F                  
WISC RAPIDS    FAIR      81  43  26 SW17      29.84F                  
CAMP DOUGLAS   FAIR      79  46  30 S9        29.84R                  
$$
 
WIZ011>013-019>022-031-037>040-048>050-212300-
NORTHEAST WISCONSIN
  
CITY           SKY/WX    TMP DP  RH WIND       PRES   REMARKS
ANTIGO         FAIR      69  45  40 E10       29.90F                  
SHAWANO        FAIR      66  42  42 NE13      29.90S                  
OCONTO         FAIR      60  35  40 NE7G16    29.94S                  
STURGEON BAY   FAIR      57  36  45 S8        29.96R                  
GREEN BAY      FAIR      64  43  46 NE14      29.91R                  
MANITOWOC      FAIR      57  32  38 S20G30    29.94R                  
APPLETON       PTSUNNY   75  34  22 S15       29.87S                  
CLINTONVILLE   FAIR      74  42  32 E10       29.88S                  
OSHKOSH        FAIR      78  42  27 S16G28    29.88S                  
$$
 
WIZ032>034-041-042-053>061-212300-
SOUTHWEST WISCONSIN
  
CITY           SKY/WX    TMP DP  RH WIND       PRES   REMARKS
LA CROSSE      FAIR      85  46  25 S17G25    29.78S HX  82           
SPARTA         FAIR      79  46  32 S9        29.81F                  
VIROQUA        FAIR      81  47  30 S15G23    29.83S HX  80           
BOSCOBEL       FAIR      85  45  24 S14G23    29.82F HX  82           
PRAIRIE DU CHI FAIR      83  41  22 SE7G20    29.81S HX  80           
PLATTEVILLE    FAIR      82  46  28 S23       29.87S HX  80           
$$

WIZ056-057-062-063-064-067-068-212300-
SOUTH CENTRAL WISCONSIN
  
CITY           SKY/WX    TMP DP  RH WIND       PRES   REMARKS
REEDSBURG      FAIR      80  47  30 S15G22    29.85F                  
BARABOO/DELLS  FAIR      78  38  24 S16       29.87S                  
LONE ROCK      FAIR      81  45  28 S15       29.84F HX  80           
MINERAL POINT  FAIR      81  43  26 S18G24    29.87S                  
MADISON        PTSUNNY   78  40  25 S17G25    29.88S                  
MIDDLETON      FAIR      81  37  20 S15G23    29.88S                  
WATERTOWN      FAIR      78  41  27 SW18      29.91R                  
MONROE         FAIR      79  39  24 MISG      29.90R                  
JANESVILLE     PTSUNNY   81  36  19 S18G29    29.91F                  
$$
 
WIZ051-052-058>065-066-070>072-212300-
SOUTHEAST WISCONSIN
  
CITY           SKY/WX    TMP DP  RH WIND       PRES   REMARKS
MILWAUKEE      PTSUNNY   69  34  27 S21       29.94F                  
WAUKESHA       SUNNY     75  37  25 S14G21    29.93S                  
MILWAUKEE/TIMM SUNNY     73  30  20 S18G24    29.93F                  
RACINE         FAIR      63  31  30 S18G26    29.97F                  
KENOSHA        FAIR      71  36  27 SE15      29.96S                  
FOND DU LAC    FAIR      77  44  30 S17       29.89R                  
SHEBOYGAN      FAIR      63  35  35 S15G29    29.94R                  
WEST BEND      FAIR      73  36  25 SE12G21   29.92R                  
JUNEAU         FAIR      77  42  28 S15       29.92R                  
$$

LSZ147-162-212300-
LAKE SUPERIOR
  
STATION/POSITION TIME  TEMP    WIND        PRES    WAVE
                       AIR SEA DIR/SP/G            HT/PER
                 (UTC) (F)     (DEG/KT/KT) (MB)    (FT/S)
$$
 
LMZ867-665-643>646-212300-
LAKE MICHIGAN
  
STATION/POSITION TIME  TEMP    WIND        PRES    WAVE
                       AIR SEA DIR/SP/G            HT/PER
                 (UTC) (F)     (DEG/KT/KT) (MB)    (FT/S)
NORTHPORT PIER   2140   39      80/  2/  3 1015.9R
KEWAUNEE LAKESHO 2154   44     170/  9/ 11 1013.5R
SHEBOYGAN LAKESH 2200   47     180/ 20/ 21 1014.0R
MILWAUKEE LAKESH 2200   49                   N/A
KENOSHA   LAKESH 2200   54     180/ 16/ 18 1014.6
$$

TC  - TEMPERATURE IN CELSIUS
VSB - VISIBILITY IN STATUTE MILES
WCI - WIND CHILL INDEX
HX  - HEAT INDEX